Hourly Data Report for July 21, 2016

OTTAWA INTL A
ONTARIO

45°19'00.000" N
75°40'00.000" W
114.90 m
6106001
71628
YOW

Download Data

Hourly Data (July 2016)
Hourly Data Report for July 21, 2016
TIME
LST
Temp Definition
°C
Dew Point Definition
°C
Rel Hum Definition
%
Precip. Amount Definition
mm

Wind Dir Definition
10's deg

Wind Spd Definition
km/h
Visibility Definition
km
Stn Press Definition
kPa
Hmdx Definition


Wind Chill Definition


Weather Definition


00:00 16.3 12.7 79   18 9 24.1 100.52     LegendNANA
01:00 15.8 12.4 80   19 12 24.1 100.53     Clear
02:00 14.8 12.3 85   22 9 24.1 100.57     LegendNANA
03:00 14.6 12.5 87   21 12 24.1 100.54     LegendNANA
04:00 13.5 12.1 91   20 12 24.1 100.57     Mostly Cloudy
05:00 13.9 12.6 92   20 11 24.1 100.54     LegendNANA
06:00 15.6 13.3 86   21 6 24.1 100.57     LegendNANA
07:00 18.1 14.1 77   19 11 24.1 100.51     Mostly Cloudy
08:00 21.0 15.0 68   18 9 24.1 100.48 25   LegendNANA
09:00 24.0 15.6 59   19 11 24.1 100.44 28   LegendNANA
10:00 26.2 16.9 56   18 19 24.1 100.35 31   Mostly Cloudy
11:00 28.1 16.9 50   19 19 24.1 100.27 33   LegendNANA
12:00 29.6 16.7 45   23 27 24.1 100.22 35   LegendNANA
13:00 31.0 17.6 44   21 21 24.1 100.13 37   Mostly Cloudy
14:00 31.7 16.7 40   22 23 24.1 100.01 37   LegendNANA
15:00 31.2 18.5 46   20 26 24.1 99.98 38   LegendNANA
16:00 30.7 18.7 48   20 25 24.1 99.87 37   Mostly Cloudy
17:00 28.9 18.0 51   19 19 24.1 99.81 35   LegendNANA
18:00 27.7 16.2 49   20 22 24.1 99.79 32   LegendNANA
19:00 26.4 15.6 51   19 19 24.1 99.73 31   Cloudy
20:00 25.4 14.4 50   21 22 24.1 99.66 29   LegendNANA
21:00 25.2 13.9 49   20 16 24.1 99.64 29   LegendNANA
22:00 24.5 14.5 53   20 20 24.1 99.55 28   Cloudy
23:00 24.7 15.2 55   20 18 24.1 99.50 29   LegendNANA

Notes on Data Quality.

Legend

  • E = Estimated
  • M = Missing
  • NA = Not Available*
  • [empty] = Indicates an unobserved value
Date modified: